Location: Unspecified
(49.8670°N, 0.0000°E)
Time: 09:26:05
(UTC+00:00)

S-56A Canister/Altair - Pass Details

Date: 16 June 2019
Orbit: 632 x 2500 km, 38.9° (Epoch: 16 July)

Event Time Altitude Azimuth Distance (km) Brightness Sun altitude
Rises 16:50:30 0° 209° (SSW) 4,372 11.7 28.8°
Reaches altitude 10° 16:55:24 10° 188° (S) 2,980 10.7 28.0°
Maximum altitude 16:58:46 14° 159° (SSE) 2,419 9.9 27.5°
Drops below altitude 10° 17:01:40 10° 128° (SE) 2,483 9.8 27.0°
Sets 17:05:05 0° 102° (ESE) 3,189 10.1 26.4°
